Location: Pedholt
(56.0260°N, 10.2097°E)
Time: 22:04:04
(UTC+00:00)

SR - Pass Details

Date: 27 July 2021
Orbit: 581 x 874 km, 66.7° (Epoch: 26 September)

Event Time Altitude Azimuth Distance (km) Brightness Sun altitude
Rises 11:22:52 0° 295° (WNW) 3,333 ? 53.1°
Reaches altitude 10° 11:25:47 10° 308° (NW) 2,352 ? 53.1°
Maximum altitude 11:30:15 26° 4° (N) 1,458 ? 53.1°
Drops below altitude 10° 11:34:25 10° 61° (ENE) 2,186 ? 53.0°
Sets 11:37:02 0° 75° (ENE) 3,050 ? 53.0°
